TimeCST,TemperatureF,Dew PointF,Humidity,Sea Level PressureIn,VisibilityMPH,Wind Direction,Wind SpeedMPH,Gust SpeedMPH,PrecipitationIn,Events,Conditions,WindDirDegrees,DateUTC
12:54 AM,23.0,18.0,81,30.00,10.0,East,8.1,-,N/A,,Clear,100,2013-02-04 06:54:00
1:54 AM,25.0,19.0,78,29.96,10.0,East,10.4,-,N/A,,Partly Cloudy,100,2013-02-04 07:54:00
2:54 AM,27.0,21.0,78,29.94,10.0,East,9.2,-,N/A,,Overcast,100,2013-02-04 08:54:00
4:54 AM,28.9,24.1,82,29.88,10.0,East,8.1,-,N/A,,Overcast,100,2013-02-04 10:54:00
5:54 AM,30.0,25.0,82,29.86,10.0,East,6.9,-,N/A,,Overcast,100,2013-02-04 11:54:00
6:54 AM,30.0,25.0,82,29.85,10.0,East,6.9,-,N/A,,Mostly Cloudy,90,2013-02-04 12:54:00
7:54 AM,30.9,24.1,76,29.86,10.0,East,3.5,-,N/A,,Mostly Cloudy,80,2013-02-04 13:54:00
8:54 AM,33.1,27.0,78,29.85,10.0,East,4.6,-,N/A,,Mostly Cloudy,100,2013-02-04 14:54:00
9:54 AM,35.1,28.9,78,29.84,10.0,East,3.5,-,N/A,,Scattered Clouds,90,2013-02-04 15:54:00
10:54 AM,39.0,28.9,67,29.83,10.0,East,3.5,-,N/A,,Clear,80,2013-02-04 16:54:00
11:54 AM,46.0,30.9,56,29.82,10.0,Calm,Calm,-,N/A,,Clear,0,2013-02-04 17:54:00
12:54 PM,52.0,30.9,45,29.81,10.0,WNW,9.2,-,N/A,,Clear,300,2013-02-04 18:54:00
1:54 PM,52.0,32.0,47,29.81,10.0,WNW,11.5,-,N/A,,Clear,300,2013-02-04 19:54:00
2:54 PM,51.1,32.0,48,29.81,10.0,NW,15.0,-,N/A,,Clear,320,2013-02-04 20:54:00
3:54 PM,48.0,30.9,52,29.83,10.0,NNW,13.8,-,0.01,,Clear,340,2013-02-04 21:54:00
4:54 PM,43.0,30.9,62,29.86,10.0,NNE,10.4,-,N/A,,Clear,30,2013-02-04 22:54:00
5:54 PM,37.9,28.0,68,29.90,10.0,North,10.4,-,N/A,,Clear,350,2013-02-04 23:54:00
6:54 PM,34.0,27.0,75,29.94,10.0,North,11.5,-,N/A,,Clear,360,2013-02-05 00:54:00
7:54 PM,30.9,25.0,79,29.97,9.0,North,11.5,-,N/A,,Clear,360,2013-02-05 01:54:00
8:45 PM,30.2,24.8,80,29.97,8.0,North,13.8,-,N/A,,Mostly Cloudy,10,2013-02-05 02:45:00
8:54 PM,30.9,24.1,76,29.99,8.0,North,10.4,-,N/A,,Scattered Clouds,360,2013-02-05 02:54:00
9:07 PM,30.2,24.8,80,29.98,8.0,North,10.4,19.6,N/A,,Mostly Cloudy,360,2013-02-05 03:07:00
9:54 PM,30.0,24.1,79,29.99,8.0,NNE,5.8,-,N/A,,Overcast,30,2013-02-05 03:54:00
10:54 PM,30.0,24.1,79,30.00,8.0,NNE,6.9,-,N/A,,Overcast,30,2013-02-05 04:54:00
11:35 PM,30.2,24.8,80,29.99,8.0,North,4.6,-,N/A,,Overcast,10,2013-02-05 05:35:00
11:54 PM,28.9,24.1,82,30.00,8.0,North,3.5,-,N/A,,Overcast,10,2013-02-05 05:54:00